Regional Weather Roundup
Issued by NWS

Home | Current Version | Previous Version | Text Only | Print | Product List | Glossary On
Versions: 1 2 3 4 5 6 7 8 9 10 11 12 13 14 15 16 17 18 19 20 21 22 23 24 25 26
000
ASUS42 KKEY 221710
RWRKEY

FLORIDA REGIONAL WEATHER ROUNDUP FOR THE FLORIDA KEYS
NATIONAL WEATHER SERVICE KEY WEST FLORIDA
100 PM EDT SUN APR 22 2018

...SOUTH FLORIDA AND THE KEYS...

CITY           SKY/WX    TMP DP  RH WIND       PRES   REMARKS
FORT MYERS     FAIR      87  68  52 E8        30.06F HX  90
SW REGIONAL AP FAIR      86  67  52 E9        30.07F
NAPLES         PTSUNNY   87  70  56 SE9       30.07F HX  92
MIAMI          PTSUNNY   84  73  69 SE16      30.08F HX  90
WEST KENDALL   FAIR      84  70  62 E17       30.07F
HOMESTEAD      FAIR      83  71  67 E14G21    30.07F
MARATHON       FAIR      85  72  65 SE14G20   30.07F HX  91
KEY WEST INTL  FAIR      84  74  71 SE13      30.08S HX  91

...INTERNATIONAL WEATHER...

CITY           SKY/WX    TMP DP  RH WIND       PRES   REMARKS
NASSAU BAHAMAS PTSUNNY   86  68  54 E10       30.09F
CANCUN MEXICO  MOSUNNY   84  73  70 SE12      30.00F HX  91
COZUMEL MEXICO MOSUNNY   88  68  51 SE10      29.99S HX  91

ADJACENT COASTAL WATERS...

STATION/POSITION TIME  SKY/WX   TEMP    WIND        PRES    WAVE
                                AIR SEA DIR/SP/G            HT/PER
                 (UTC)          (F)     (DEG/KT/KT) (MB)    (FT/S)
PULASKI SHOAL LI NOT AVBL
SAND KEY         NOT AVBL
SOMBRERO KEY     NOT AVBL
LONG KEY         NOT AVBL
MOLASSES REEF    NOT AVBL
FOWEY ROCKS      NOT AVBL

$$




USA.gov is the U.S. government's official web portal to all federal, state and local government web resources and services.